This is the latest recevied weather packets stored in our database for station/object KB7KFC-3. If no packets are shown the sender has not sent any weather packets the latest 10 day(s).
| Time | Temp. | Humidity | Pressure | Rain* | Wind** | Luminosity | Snow |
|---|---|---|---|---|---|---|---|
| 1777433906 | 24.44° C | 18% | 1014.7 hPa | 0 mm | - | - | - |
| 1777433547 | 25° C | 19% | 1014.7 hPa | 0 mm | - | - | - |
| 1777433007 | 25° C | 19% | 1014.4 hPa | 0 mm | - | - | - |
| 1777432827 | 25° C | 18% | 1014.4 hPa | 0 mm | - | - | - |
| 1777432647 | 25° C | 17% | 1014.4 hPa | 0 mm | - | - | - |
| 1777432468 | 25° C | 17% | 1014.4 hPa | 0 mm | - | - | - |
| 1777431928 | 25° C | 17% | 1014.3 hPa | 0 mm | - | - | - |
| 1777430307 | 25° C | 21% | 1014 hPa | 0 mm | - | - | - |
| 1777429948 | 25.56° C | 16% | 1013.9 hPa | 0 mm | - | - | - |
| 1777429767 | 25.56° C | 17% | 1013.9 hPa | 0 mm | - | - | - |
| 1777428687 | 26.11° C | 14% | 1013.6 hPa | 0 mm | - | - | - |
| 1777428148 | 26.67° C | 14% | 1013.6 hPa | 0 mm | - | - | - |
| 1777426708 | 27.78° C | 12% | 1013.6 hPa | 0 mm | - | - | - |
| 1777425987 | 27.78° C | 12% | 1013.6 hPa | 0 mm | - | - | - |
| 1777425093 | 28.33° C | 12% | 1013.7 hPa | 0 mm | - | - | - |
| 1777424187 | 28.89° C | 12% | 1013.6 hPa | 0 mm | - | - | - |
| 1777424008 | 28.89° C | 11% | 1013.7 hPa | 0 mm | - | - | - |
| 1777423648 | 28.89° C | 12% | 1013.8 hPa | 0 mm | - | - | - |
| 1777423467 | 28.89° C | 11% | 1013.9 hPa | 0 mm | - | - | - |
| 1777422746 | 28.89° C | 11% | 1013.8 hPa | 0 mm | - | - | - |
| 1777422387 | 28.89° C | 11% | 1013.8 hPa | 0 mm | - | - | - |
| 1777422208 | 28.89° C | 11% | 1013.8 hPa | 0 mm | - | - | - |
| 1777421848 | 28.89° C | 10% | 1013.8 hPa | 0 mm | - | - | - |
| 1777421668 | 28.89° C | 12% | 1013.8 hPa | 0 mm | - | - | - |
* Rain latest hour (hover to see other rain measurements)
** Current wind speed in m/s (hover to see current wind gust speed)